Location: Basse Occidentale du Courleau
(48.3833°N, 4.8333°W)
Time: 19:35:49
(UTC+00:00)

Cosmos 1452 Rocket - Pass Details

Date: 05 July 2020
Orbit: 768 x 774 km, 74.1° (Epoch: 05 August)

Event Time Altitude Azimuth Distance (km) Brightness Sun altitude
Rises 23:24:19 0° 341° (NNW) 3,258 8.5 -17.7°
Reaches altitude 10° 23:26:51 10° 348° (NNW) 2,326 7.3 -17.8°
Maximum altitude 23:31:51 42° 59° (ENE) 1,089 4.4 -18.0°
Enters shadow 23:35:05 20° 121° (ESE) 1,716 4.9 -18.1°
